, SD

(GMT )
Rapid City

Weather History for KRAP - June, 2013

Change the Weather History Date:

Sunday, June 16, 2013

  Actual Average Record
Temperature  
Mean Temperature 65 °F 65 °F  
Max Temperature 79 °F 78 °F 101 °F (1989)
Min Temperature 50 °F 51 °F 38 °F (1945)
Degree Days  
Heating Degree Days 0 3  
Month to date heating degree days 76 72  
Since 1 June heating degree days 76 72  
Since 1 July heating degree days 7180 7126  
Cooling Degree Days 0 3  
Month to date cooling degree days 7 25  
Year to date cooling degree days 15 40  
Since 1 June cooling degree days 7 25  
Growing Degree Days 15 (Base 50)    
Moisture  
Dew Point 52 °F    
Average Humidity 61    
Maximum Humidity 86    
Minimum Humidity 36    
Precipitation  
Precipitation 0.00 in 0.09 in 1.00 in (1978)
Month to date precipitation 0.58 1.58  
Year to date precipitation 8.20 8.27  
Snow  
Snow 0.00 in 0.00 in 0.00 in ()
Month to date snowfall 0.0 0.0  
Since 1 June snowfall 0.0 0.0  
Since 1 July snowfall 76.7 41.1  
Snow Depth 0.00 in    
Sea Level Pressure  
Sea Level Pressure 29.99 in    
Wind  
Wind Speed 6 mph (ESE)    
Max Wind Speed 24 mph    
Max Gust Speed 29 mph    
Visibility 10 miles    
Events Thunderstorm    
T = Trace of Precipitation, MM = Missing Value Source: NWS Daily Summary

Daily Weather History Graph

Daily Weather History Graph

Search for Another Location

Airport or City:

Astronomy

Jun. 16, 2013 Rise Set
Actual Time 5:08 AM MDT 8:37 PM MDT
Civil Twilight 4:32 AM MDT 9:13 PM MDT
Nautical Twilight 3:44 AM MDT 10:01 PM MDT
Astronomical Twilight 2:43 AM MDT 11:02 PM MDT
Moon 1:02 PM MDT (6/16) 12:29 AM MDT (6/16)
Length of Visible Light 16h 41m
Length of Day
15h 28m
Waxing Crescent, 50% of the Moon is Illuminated
Jun 16
Waxing Crescent
Jun 23
Full
Jun 29
Last Quarter
Jul 8
New
Jul 15
First Quarter

Hourly Weather History & Observations

Time (MDT) Temp. Dew Point Humidity Pressure Visibility Wind Dir Wind Speed Gust Speed Precip Events Conditions
12:52 AM 54.0 °F 46.9 °F 77% 29.98 in 10.0 mi Calm Calm - N/A   Clear
1:52 AM 57.9 °F 46.9 °F 67% 29.96 in 10.0 mi Calm Calm - N/A   Clear
2:52 AM 52.0 °F 46.9 °F 83% 29.98 in 10.0 mi Calm Calm - N/A   Clear
3:52 AM 51.1 °F 46.9 °F 86% 29.98 in 10.0 mi WNW 3.5 mph - N/A   Clear
4:52 AM 52.0 °F 46.9 °F 83% 29.98 in 10.0 mi South 3.5 mph - N/A   Scattered Clouds
5:52 AM 51.1 °F 46.9 °F 86% 29.99 in 10.0 mi Calm Calm - N/A   Scattered Clouds
6:52 AM 61.0 °F 51.1 °F 70% 29.96 in 10.0 mi SSW 5.8 mph - N/A   Mostly Cloudy
7:04 AM 60.8 °F 51.8 °F 72% 30.01 in 10.0 mi Calm Calm - N/A Thunderstorm Mostly Cloudy
7:21 AM 60.8 °F 50.0 °F 68% 30.02 in 10.0 mi Calm Calm - N/A   Mostly Cloudy
7:52 AM 61.0 °F 54.0 °F 78% 29.96 in 10.0 mi Calm Calm - N/A   Mostly Cloudy
8:52 AM 68.0 °F 55.9 °F 65% 29.94 in 10.0 mi SE 8.1 mph - N/A   Clear
9:52 AM 72.0 °F 57.9 °F 61% 29.94 in 10.0 mi ESE 8.1 mph - N/A   Clear
10:52 AM 72.0 °F 59.0 °F 64% 29.97 in 10.0 mi East 16.1 mph - N/A   Mostly Cloudy
11:52 AM 72.0 °F 55.9 °F 57% 30.01 in 10.0 mi ESE 19.6 mph - N/A   Partly Cloudy
12:52 PM 72.0 °F 51.1 °F 48% 30.01 in 10.0 mi ESE 17.3 mph 24.2 mph N/A   Clear
1:52 PM 73.9 °F 52.0 °F 46% 30.01 in 10.0 mi SE 13.8 mph - N/A   Clear
2:52 PM 75.0 °F 53.1 °F 46% 30.00 in 10.0 mi SE 8.1 mph - N/A   Clear
3:52 PM 77.0 °F 53.1 °F 43% 29.99 in 10.0 mi ESE 6.9 mph - N/A   Clear
4:52 PM 77.0 °F 48.9 °F 37% 29.97 in 10.0 mi ENE 6.9 mph - N/A   Clear
5:52 PM 77.0 °F 48.9 °F 37% 29.98 in 10.0 mi NE 3.5 mph - N/A   Clear
6:52 PM 75.9 °F 51.1 °F 42% 29.97 in 10.0 mi NE 4.6 mph - N/A   Clear
7:52 PM 70.0 °F 55.9 °F 61% 29.99 in 10.0 mi ENE 3.5 mph - N/A   Clear
8:52 PM 63.0 °F 52.0 °F 67% 30.01 in 10.0 mi East 5.8 mph - N/A   Clear
9:52 PM 60.1 °F 52.0 °F 75% 30.03 in 10.0 mi Calm Calm - N/A   Clear
10:52 PM 59.0 °F 51.1 °F 75% 30.05 in 10.0 mi Calm Calm - N/A   Clear
11:52 PM 57.9 °F 53.1 °F 84% 30.07 in 10.0 mi North 6.9 mph - N/A   Clear